Location: William D. McDowell Observatory
(40.7857°N, 74.1054°W)
Time: 00:24:11
(UTC-05:00)

OTV 5 (USA 277) - Visible Passes

Search period start: 16 February 2019 00:00
Search period end: 26 February 2019 00:00
Orbit: 342 x 346 km, 54.5° (Epoch: 09 February)

Date Brightness Start Highest point End Pass type
(mag) Time Alt. Az. Time Alt. Az. Time Alt. Az.
16 Feb ? 05:19:01 69° SSW 05:19:01 69° SSW 05:21:47 10° SE visible
17 Feb ? 05:42:26 18° SW 05:42:26 18° SW 05:44:31 10° S visible
21 Feb ? 18:56:43 10° SSE 18:56:52 11° SSE 18:56:52 11° SSE visible
22 Feb ? 19:19:05 10° SSW 19:20:39 27° SSW 19:20:39 27° SSW visible
23 Feb ? 18:09:15 10° SSE 18:10:55 14° SE 18:12:35 10° E visible
23 Feb ? 19:42:49 10° WSW 19:44:17 24° W 19:44:17 24° W visible
24 Feb ? 18:31:32 10° SSW 18:34:20 50° SE 18:36:19 17° ENE visible
24 Feb ? 20:07:28 10° WNW 20:07:46 11° WNW 20:07:46 11° WNW visible
25 Feb ? 18:55:13 10° WSW 18:57:58 42° NW 18:59:40 19° NNE visible
